STARLINK-1040

decayed
NORAD ID: 44745 Int'l Des: 2019-074 Owner: SPXS Country: US Constellation: starlink
LEOCIRCULAR
グループ

STARLINK-1040について

説明を読み込み中...

高度履歴

Altitude vs Time

uPlot chart will show altitude changes over time

軌道要素

1 44745U 19074AJ 20246.77485442 .21998659 12712-4 15628-3 0 9991
2 44745 52.9611 104.7789 0006885 265.0997 95.3587 16.52708336 47077
Epoch: Sep 2, 2020 • Age: 44139 hours

現在のステータス

Position data unavailable
打ち上げ日 Nov 11, 2019
運用期間 5.8 years
落下予定日 Sep 2, 2020
タイプ internet

技術仕様

分類 Payload
質量 260.00 kg
乾燥質量 248.00 kg
総質量 260.00 kg
長さ 0.20 m
直径 2.80 m
スパン 9.00 m
形状 Box + pan
製造者 SPXS
バスタイプ Starlink
フェーズステータス Reentered
所有者/国 SPXS/US

大規模コンステレーション

Loading constellations...